TimePDT,TemperatureF,Dew PointF,Humidity,Sea Level PressureIn,VisibilityMPH,Wind Direction,Wind SpeedMPH,Gust SpeedMPH,PrecipitationIn,Events,Conditions,WindDirDegrees,DateUTC
12:52 AM,45.0,36.0,71,30.09,10.0,SSE,4.6,-,N/A,,Clear,160,2013-03-29 07:52:00
1:52 AM,45.0,37.9,76,30.11,10.0,Calm,Calm,-,N/A,,Clear,0,2013-03-29 08:52:00
2:52 AM,39.0,33.1,79,30.12,10.0,North,5.8,-,N/A,,Clear,360,2013-03-29 09:52:00
3:52 AM,37.0,32.0,82,30.13,10.0,North,4.6,-,N/A,,Clear,350,2013-03-29 10:52:00
4:52 AM,37.0,32.0,82,30.14,10.0,Calm,Calm,-,N/A,,Clear,0,2013-03-29 11:52:00
5:52 AM,35.1,30.0,82,30.16,10.0,NNW,4.6,-,N/A,,Clear,330,2013-03-29 12:52:00
6:52 AM,34.0,30.9,89,30.32,10.0,Calm,Calm,-,N/A,,Clear,0,2013-03-29 13:52:00
7:52 AM,37.9,33.1,83,30.33,10.0,NE,3.5,-,N/A,,Mostly Cloudy,40,2013-03-29 14:52:00
8:52 AM,44.1,36.0,73,30.20,10.0,Calm,Calm,-,N/A,,Overcast,0,2013-03-29 15:52:00
9:52 AM,48.9,37.9,66,30.20,10.0,ENE,3.5,-,N/A,,Overcast,60,2013-03-29 16:52:00
10:52 AM,55.9,36.0,47,30.21,10.0,Calm,Calm,-,N/A,,Partly Cloudy,0,2013-03-29 17:52:00
11:52 AM,60.1,37.0,42,30.21,10.0,South,4.6,-,N/A,,Clear,170,2013-03-29 18:52:00
12:52 PM,63.0,30.9,30,30.20,10.0,South,4.6,-,N/A,,Clear,180,2013-03-29 19:52:00
1:52 PM,64.9,32.0,29,30.19,10.0,SW,5.8,-,N/A,,Clear,230,2013-03-29 20:52:00
2:52 PM,66.9,33.1,28,30.17,10.0,SSW,9.2,-,N/A,,Clear,210,2013-03-29 21:52:00
3:52 PM,66.9,33.1,28,30.16,10.0,Variable,6.9,-,N/A,,Clear,0,2013-03-29 22:52:00
4:52 PM,68.0,34.0,28,30.15,10.0,South,10.4,-,N/A,,Clear,190,2013-03-29 23:52:00
5:52 PM,66.0,34.0,30,30.15,10.0,South,9.2,-,N/A,,Clear,180,2013-03-30 00:52:00
6:52 PM,64.0,34.0,33,30.15,10.0,SW,5.8,-,N/A,,Clear,220,2013-03-30 01:52:00
7:52 PM,61.0,35.1,38,30.16,10.0,SSW,5.8,-,N/A,,Clear,200,2013-03-30 02:52:00
8:52 PM,53.1,36.0,52,30.18,10.0,SE,5.8,-,N/A,,Clear,140,2013-03-30 03:52:00
9:52 PM,52.0,36.0,54,30.19,10.0,SSE,3.5,-,N/A,,Clear,150,2013-03-30 04:52:00
10:52 PM,51.1,35.1,54,30.19,10.0,Calm,Calm,-,N/A,,Clear,0,2013-03-30 05:52:00
11:52 PM,44.1,34.0,68,30.20,10.0,Calm,Calm,-,N/A,,Clear,0,2013-03-30 06:52:00